,,Stat6,,Stat2,,Stat8,,Stat9,,Stat10,,Wind1,,Wind1,
time,status,PA1M_AVG,status,PR1M_SUM,status,RH1M_AVG,status,SR1M_AVG,status,TA1M_AVG,status,W1dAve1m,status,W1sAve1m,
2006-04-28, 00:00:00,VALID,918.089,VALID,0,VALID,99.8922,VALID,-0.20377,VALID,19.7434,VALID,82,VALID,1.09505,
2006-04-28, 00:01:00,VALID,918.115,VALID,0,VALID,99.9741,VALID,-0.220751,VALID,20.3894,VALID,87,VALID,1.08666,
2006-04-28, 00:02:00,VALID,918.132,VALID,0,VALID,100,VALID,-0.20377,VALID,19.7011,VALID,90,VALID,0.739329,
2006-04-28, 00:03:00,VALID,918.148,VALID,0,VALID,100,VALID,-0.220751,VALID,18.9385,VALID,93,VALID,0.774148,
2006-04-28, 00:04:00,VALID,918.159,VALID,0,VALID,100,VALID,-0.220751,VALID,19.7781,VALID,97,VALID,0.895833,
2006-04-28, 00:05:01,VALID,918.161,VALID,0,VALID,100,VALID,-0.237732,VALID,21.2767,VALID,99,VALID,0.928597,
2006-04-28, 00:06:00,VALID,918.156,VALID,0,VALID,100,VALID,-0.254712,VALID,19.352,VALID,101,VALID,0.992006,
2006-04-28, 00:07:00,VALID,918.156,VALID,0,VALID,100,VALID,-0.271693,VALID,19.8333,VALID,99,VALID,0.966332,
2006-04-28, 00:08:00,VALID,918.148,VALID,0,VALID,100,VALID,-0.237732,VALID,19.0022,VALID,99,VALID,1.00763,
2006-04-28, 00:09:00,VALID,918.161,VALID,0,VALID,100,VALID,-0.220751,VALID,19.1445,VALID,92,VALID,0.922637,
2006-04-28, 00:10:00,VALID,918.177,VALID,0,VALID,100,VALID,-0.220751,VALID,19.4445,VALID,85,VALID,0.618608,
2006-04-28, 00:11:01,VALID,918.184,VALID,0,VALID,100,VALID,-0.254712,VALID,18.948,VALID,106,VALID,0.595898,
2006-04-28, 00:12:00,VALID,918.201,VALID,0,VALID,100,VALID,-0.356597,VALID,20.8552,VALID,95,VALID,0.628993,
2006-04-28, 00:13:00,VALID,918.214,VALID,0,VALID,100,VALID,-0.339617,VALID,19.9798,VALID,86,VALID,0.653232,
2006-04-28, 00:14:00,VALID,918.219,VALID,0,VALID,100,VALID,-0.220751,VALID,19.7341,VALID,82,VALID,0.777734,
2006-04-28, 00:15:00,VALID,918.216,VALID,0,VALID,100,VALID,-0.20377,VALID,19.5969,VALID,77,VALID,0.938802,
2006-04-28, 00:16:00,VALID,918.201,VALID,0,VALID,100,VALID,-0.237732,VALID,19.7504,VALID,77,VALID,0.906994,
2006-04-28, 00:17:00,VALID,918.197,VALID,0,VALID,100,VALID,-0.20377,VALID,19.5977,VALID,83,VALID,0.646205,
2006-04-28, 00:18:01,VALID,918.196,VALID,0,VALID,100,VALID,-0.20377,VALID,19.199,VALID,84,VALID,0.457386,
2006-04-28, 00:19:00,VALID,918.209,VALID,0,VALID,100,VALID,-0.20377,VALID,19.8326,VALID,77,VALID,0.548735,
2006-04-28, 00:20:01,VALID,918.192,VALID,0,VALID,100,VALID,-0.20377,VALID,20.158,VALID,71,VALID,0.520008,
2006-04-28, 00:21:01,VALID,918.188,VALID,0,VALID,100,VALID,-0.186789,VALID,19.8172,VALID,71,VALID,0.520774,
2006-04-28, 00:22:01,VALID,918.173,VALID,0,VALID,100,VALID,-0.288674,VALID,20.3147,VALID,71,VALID,0.460938,
2006-04-28, 00:23:00,VALID,918.161,VALID,0,VALID,100,VALID,-0.305655,VALID,19.1677,VALID,71,VALID,0.202567,
2006-04-28, 00:24:00,VALID,918.175,VALID,0,VALID,100,VALID,-0.305655,VALID,20.377,VALID,71,VALID,0.335574,
2006-04-28, 00:25:00,VALID,918.186,VALID,0,VALID,100,VALID,-0.305655,VALID,19.8551,VALID,71,VALID,0.285429,
2006-04-28, 00:26:00,VALID,918.202,VALID,0,VALID,100,VALID,-0.322636,VALID,20.3175,VALID,71,VALID,0.364462,
2006-04-28, 00:27:00,VALID,918.207,VALID,0,VALID,100,VALID,-0.322636,VALID,19.8766,VALID,71,VALID,0.123242,
2006-04-28, 00:28:00,VALID,918.212,VALID,0,VALID,100,VALID,-0.305655,VALID,18.8196,VALID,71,VALID,0.180233,
2006-04-28, 00:29:00,VALID,918.207,VALID,0,VALID,100,VALID,-0.220751,VALID,19.2713,VALID,71,VALID,0.173209,
2006-04-28, 00:30:01,VALID,918.209,VALID,0,VALID,100,VALID,-0.305655,VALID,19.4268,VALID,71,VALID,0.245898,
2006-04-28, 00:31:01,VALID,918.237,VALID,0,VALID,100,VALID,-0.220751,VALID,19.8464,VALID,71,VALID,0.278161,
2006-04-28, 00:32:00,VALID,918.257,VALID,0,VALID,100,VALID,-0.20377,VALID,19.9786,VALID,71,VALID,0.324128,
2006-04-28, 00:33:00,VALID,918.263,VALID,0,VALID,100,VALID,-0.237732,VALID,20.2202,VALID,71,VALID,0.285792,
2006-04-28, 00:34:01,VALID,918.277,VALID,0,VALID,100,VALID,-0.271693,VALID,19.3494,VALID,71,VALID,0.615104,
2006-04-28, 00:35:00,VALID,918.3,VALID,0,VALID,100,VALID,-0.288674,VALID,19.7334,VALID,69,VALID,0.579613,
2006-04-28, 00:36:00,VALID,918.314,VALID,0,VALID,100,VALID,-0.254712,VALID,18.682,VALID,68,VALID,0.554688,
2006-04-28, 00:37:00,VALID,918.316,VALID,0,VALID,100,VALID,-0.305655,VALID,19.47,VALID,68,VALID,0.435454,
2006-04-28, 00:38:01,VALID,918.329,VALID,0,VALID,100,VALID,-0.271693,VALID,20.7397,VALID,68,VALID,0.495427,
2006-04-28, 00:39:00,VALID,918.342,VALID,0,VALID,100,VALID,-0.390559,VALID,20.2599,VALID,62,VALID,0.567014,
2006-04-28, 00:40:00,VALID,918.361,VALID,0,VALID,99.9941,VALID,-0.390559,VALID,19.3585,VALID,55,VALID,0.497049,
2006-04-28, 00:41:00,VALID,918.361,VALID,0,VALID,100,VALID,-0.373578,VALID,19.9927,VALID,39,VALID,0.463663,
2006-04-28, 00:42:01,VALID,918.377,VALID,0,VALID,99.9507,VALID,-0.220751,VALID,20.4616,VALID,32,VALID,0.477307,
2006-04-28, 00:43:01,VALID,918.384,VALID,0,VALID,100,VALID,-0.254712,VALID,18.8081,VALID,32,VALID,0.300102,
2006-04-28, 00:44:01,VALID,918.392,VALID,0,VALID,100,VALID,-0.254712,VALID,19.6257,VALID,32,VALID,0.287287,
2006-04-28, 00:45:00,VALID,918.395,VALID,0,VALID,100,VALID,-0.20377,VALID,19.6344,VALID,32,VALID,0.0524306,
2006-04-28, 00:46:01,VALID,918.415,VALID,0,VALID,100,VALID,-0.254712,VALID,19.452,VALID,32,VALID,0,
2006-04-28, 00:47:00,VALID,918.408,VALID,0,VALID,100,VALID,-0.288674,VALID,18.7936,VALID,32,VALID,0,
2006-04-28, 00:48:00,VALID,918.426,VALID,0,VALID,100,VALID,-0.254712,VALID,19.9427,VALID,32,VALID,0,
2006-04-28, 00:49:01,VALID,918.406,VALID,0,VALID,100,VALID,-0.254712,VALID,20.3204,VALID,32,VALID,0,
2006-04-28, 00:50:01,VALID,918.398,VALID,0,VALID,100,VALID,-0.237732,VALID,20.0818,VALID,32,VALID,0,
2006-04-28, 00:51:01,VALID,918.391,VALID,0,VALID,100,VALID,-0.271693,VALID,19.3507,VALID,32,VALID,0,
2006-04-28, 00:52:01,VALID,918.387,VALID,0,VALID,100,VALID,-0.254712,VALID,20.0406,VALID,32,VALID,0.165777,
2006-04-28, 00:53:01,VALID,918.389,VALID,0,VALID,100,VALID,-0.254712,VALID,20.2959,VALID,32,VALID,0.0692224,
2006-04-28, 00:54:01,VALID,918.383,VALID,0,VALID,100,VALID,-0.305655,VALID,20.2882,VALID,32,VALID,0.0699013,
2006-04-28, 00:55:01,VALID,918.376,VALID,0,VALID,100,VALID,-0.237732,VALID,19.8767,VALID,32,VALID,0.215199,
2006-04-28, 00:56:00,VALID,918.371,VALID,0,VALID,100,VALID,-0.271693,VALID,19.5484,VALID,32,VALID,0.162305,
2006-04-28, 00:57:01,VALID,918.353,VALID,0,VALID,100,VALID,-0.356597,VALID,20.5763,VALID,62,VALID,0.373437,
2006-04-28, 00:58:01,VALID,918.347,VALID,0,VALID,100,VALID,-0.220751,VALID,19.2179,VALID,163,VALID,0.548177,
2006-04-28, 00:59:00,VALID,918.338,VALID,0,VALID,100,VALID,-0.220751,VALID,19.8191,VALID,168,VALID,0.263194,
2006-04-28, 01:00:01,VALID,918.345,VALID,0,VALID,100,VALID,-0.20377,VALID,20.3628,VALID,170,VALID,0.0846946,
2006-04-28, 01:01:00,VALID,918.326,VALID,0,VALID,100,VALID,-0.271693,VALID,20.3277,VALID,170,VALID,0.0396205,
2006-04-28, 01:02:01,VALID,918.329,VALID,0,VALID,100,VALID,-0.271693,VALID,20.1372,VALID,170,VALID,0,
2006-04-28, 01:03:01,VALID,918.326,VALID,0,VALID,100,VALID,-0.288674,VALID,19.482,VALID,170,VALID,0,
2006-04-28, 01:04:01,VALID,918.331,VALID,0,VALID,100,VALID,-0.237732,VALID,19.9768,VALID,170,VALID,0,
2006-04-28, 01:05:01,VALID,918.329,VALID,0,VALID,100,VALID,-0.271693,VALID,19.6863,VALID,170,VALID,0,
2006-04-28, 01:06:01,VALID,918.331,VALID,0,VALID,100,VALID,-0.271693,VALID,19.7948,VALID,170,VALID,0.0159722,
2006-04-28, 01:07:01,VALID,918.327,VALID,0,VALID,100,VALID,-0.271693,VALID,19.3391,VALID,170,VALID,0.270486,
2006-04-28, 01:08:00,VALID,918.328,VALID,0,VALID,100,VALID,-0.305655,VALID,19.3943,VALID,149,VALID,0.470846,
2006-04-28, 01:09:00,VALID,918.32,VALID,0,VALID,99.8807,VALID,-0.305655,VALID,18.9055,VALID,106,VALID,0.585392,
2006-04-28, 01:10:01,VALID,918.321,VALID,0,VALID,99.9448,VALID,-0.305655,VALID,19.1605,VALID,95,VALID,0.647166,
2006-04-28, 01:11:01,VALID,918.321,VALID,0,VALID,100,VALID,-0.305655,VALID,18.5671,VALID,95,VALID,0.530705,
2006-04-28, 01:12:01,VALID,918.321,VALID,0,VALID,100,VALID,-0.305655,VALID,18.9548,VALID,95,VALID,0.380682,
2006-04-28, 01:13:01,VALID,918.312,VALID,0,VALID,100,VALID,-0.271693,VALID,19.3642,VALID,95,VALID,0.216372,
2006-04-28, 01:14:01,VALID,918.319,VALID,0,VALID,100,VALID,-0.305655,VALID,19.9118,VALID,95,VALID,0.0463542,
2006-04-28, 01:15:01,VALID,918.31,VALID,0,VALID,100,VALID,-0.271693,VALID,19.5117,VALID,95,VALID,0,
2006-04-28, 01:16:01,VALID,918.292,VALID,0,VALID,100,VALID,-0.305655,VALID,19.4146,VALID,95,VALID,0,
2006-04-28, 01:17:01,VALID,918.278,VALID,0,VALID,100,VALID,-0.356597,VALID,19.4897,VALID,95,VALID,0,
2006-04-28, 01:18:01,VALID,918.264,VALID,0,VALID,100,VALID,-0.220751,VALID,19.2709,VALID,95,VALID,0,
2006-04-28, 01:19:01,VALID,918.256,VALID,0,VALID,100,VALID,-0.220751,VALID,18.6805,VALID,95,VALID,0,
2006-04-28, 01:20:01,VALID,918.236,VALID,0,VALID,100,VALID,-0.220751,VALID,20.1669,VALID,95,VALID,0,
2006-04-28, 01:21:01,VALID,918.225,VALID,0,VALID,100,VALID,-0.237732,VALID,19.1623,VALID,95,VALID,0.114524,
2006-04-28, 01:22:01,VALID,918.212,VALID,0,VALID,100,VALID,-0.339617,VALID,19.0437,VALID,93,VALID,0.407366,
2006-04-28, 01:23:01,VALID,918.201,VALID,0,VALID,100,VALID,-0.288674,VALID,19.7534,VALID,67,VALID,0.400645,
2006-04-28, 01:24:01,VALID,918.207,VALID,0,VALID,100,VALID,-0.220751,VALID,18.9987,VALID,67,VALID,0.422508,
2006-04-28, 01:25:01,VALID,918.203,VALID,0,VALID,99.9591,VALID,-0.237732,VALID,18.2757,VALID,67,VALID,0.475991,
2006-04-28, 01:26:01,VALID,918.18,VALID,0,VALID,99.8716,VALID,-0.288674,VALID,20.382,VALID,60,VALID,0.706845,
2006-04-28, 01:27:01,VALID,918.166,VALID,0,VALID,100,VALID,-0.220751,VALID,18.8906,VALID,59,VALID,0.848242,
2006-04-28, 01:28:01,VALID,918.157,VALID,0,VALID,100,VALID,-0.220751,VALID,18.6713,VALID,67,VALID,1.06181,
2006-04-28, 01:29:01,VALID,918.151,VALID,0,VALID,100,VALID,-0.237732,VALID,17.7114,VALID,65,VALID,1.00183,
2006-04-28, 01:30:01,VALID,918.163,VALID,0,VALID,100,VALID,-0.20377,VALID,19.7109,VALID,49,VALID,0.898256,
2006-04-28, 01:31:01,VALID,918.155,VALID,0,VALID,100,VALID,-0.237732,VALID,18.8078,VALID,47,VALID,0.869141,
2006-04-28, 01:32:01,VALID,918.16,VALID,0,VALID,100,VALID,-0.254712,VALID,19.9584,VALID,55,VALID,1.09943,
2006-04-28, 01:33:01,VALID,918.161,VALID,0,VALID,100,VALID,-0.305655,VALID,19.6333,VALID,53,VALID,0.885764,
2006-04-28, 01:34:01,VALID,918.177,VALID,0,VALID,100,VALID,-0.254712,VALID,19.2605,VALID,53,VALID,0.667878,
2006-04-28, 01:35:00,VALID,918.175,VALID,0,VALID,100,VALID,-0.305655,VALID,18.883,VALID,53,VALID,0.872796,
2006-04-28, 01:36:00,VALID,918.173,VALID,0,VALID,100,VALID,-0.237732,VALID,19.9622,VALID,53,VALID,0.568182,
2006-04-28, 01:37:00,VALID,918.202,VALID,0,VALID,100,VALID,-0.271693,VALID,19.4032,VALID,53,VALID,0.410823,
2006-04-28, 01:38:00,VALID,918.197,VALID,0,VALID,100,VALID,-0.271693,VALID,18.4895,VALID,53,VALID,0.336133,
2006-04-28, 01:39:00,VALID,918.2,VALID,0,VALID,100,VALID,-0.288674,VALID,20.0523,VALID,53,VALID,0.543713,
2006-04-28, 01:40:00,VALID,918.181,VALID,0,VALID,100,VALID,-0.288674,VALID,19.6403,VALID,53,VALID,0.563715,
2006-04-28, 01:41:00,VALID,918.177,VALID,0,VALID,100,VALID,-0.288674,VALID,19.7438,VALID,53,VALID,0.602734,
2006-04-28, 01:42:00,VALID,918.179,VALID,0,VALID,100,VALID,-0.254712,VALID,19.043,VALID,53,VALID,0.775724,
2006-04-28, 01:43:00,VALID,918.18,VALID,0,VALID,100,VALID,-0.305655,VALID,19.3607,VALID,53,VALID,0.585175,
2006-04-28, 01:44:00,VALID,918.184,VALID,0,VALID,100,VALID,-0.288674,VALID,19.349,VALID,57,VALID,0.56359,
2006-04-28, 01:45:00,VALID,918.169,VALID,0,VALID,100,VALID,-0.288674,VALID,20.0665,VALID,78,VALID,0.589026,
2006-04-28, 01:46:00,VALID,918.166,VALID,0,VALID,100,VALID,-0.271693,VALID,19.7019,VALID,110,VALID,0.782227,
2006-04-28, 01:47:00,VALID,918.154,VALID,0,VALID,100,VALID,-0.271693,VALID,19.3144,VALID,123,VALID,0.817224,
2006-04-28, 01:48:00,VALID,918.141,VALID,0,VALID,100,VALID,-0.288674,VALID,18.6934,VALID,125,VALID,0.821265,
2006-04-28, 01:49:00,VALID,918.134,VALID,0,VALID,100,VALID,-0.271693,VALID,19.5233,VALID,125,VALID,0.797061,
2006-04-28, 01:50:00,VALID,918.134,VALID,0,VALID,100,VALID,-0.271693,VALID,19.1723,VALID,128,VALID,0.67016,
2006-04-28, 01:51:00,VALID,918.116,VALID,0,VALID,100,VALID,-0.305655,VALID,19.4945,VALID,130,VALID,0.755269,
2006-04-28, 01:52:00,VALID,918.099,VALID,0,VALID,100,VALID,-0.254712,VALID,19.4464,VALID,134,VALID,0.727121,
2006-04-28, 01:53:00,VALID,918.088,VALID,0,VALID,100,VALID,-0.254712,VALID,18.7223,VALID,135,VALID,0.605808,
2006-04-28, 01:54:00,VALID,918.063,VALID,0,VALID,100,VALID,-0.271693,VALID,18.8045,VALID,134,VALID,0.643895,
2006-04-28, 01:55:00,VALID,918.054,VALID,0,VALID,100,VALID,-0.254712,VALID,18.8255,VALID,133,VALID,0.655208,
2006-04-28, 01:56:00,VALID,918.043,VALID,0,VALID,100,VALID,-0.271693,VALID,19.4675,VALID,130,VALID,0.623811,
2006-04-28, 01:57:00,VALID,918.039,VALID,0,VALID,100,VALID,-0.254712,VALID,18.5429,VALID,123,VALID,0.698933,
2006-04-28, 01:58:00,VALID,918.042,VALID,0,VALID,100,VALID,-0.288674,VALID,19.4639,VALID,98,VALID,0.834847,
2006-04-28, 01:59:00,VALID,918.04,VALID,0,VALID,100,VALID,-0.271693,VALID,19.2273,VALID,97,VALID,0.490513,
2006-04-28, 02:00:00,VALID,918.05,VALID,0,VALID,100,VALID,-0.271693,VALID,18.222,VALID,92,VALID,0.475654,
2006-04-28, 02:01:00,VALID,918.051,VALID,0,VALID,100,VALID,-0.254712,VALID,19.5482,VALID,88,VALID,0.77782,
2006-04-28, 02:02:00,VALID,918.057,VALID,0,VALID,100,VALID,-0.254712,VALID,19.2026,VALID,88,VALID,0.75343,
2006-04-28, 02:03:00,VALID,918.067,VALID,0,VALID,100,VALID,-0.305655,VALID,19.3314,VALID,88,VALID,0.533053,
2006-04-28, 02:04:00,VALID,918.07,VALID,0,VALID,100,VALID,-0.271693,VALID,18.4046,VALID,88,VALID,0.642442,
2006-04-28, 02:05:00,VALID,918.054,VALID,0,VALID,100,VALID,-0.305655,VALID,19.4786,VALID,88,VALID,0.347301,
2006-04-28, 02:06:00,VALID,918.068,VALID,0,VALID,100,VALID,-0.322636,VALID,19.4678,VALID,91,VALID,0.179865,
2006-04-28, 02:07:00,VALID,918.054,VALID,0,VALID,100,VALID,-0.373578,VALID,19.3501,VALID,113,VALID,0.718164,
2006-04-28, 02:08:00,VALID,918.054,VALID,0,VALID,100,VALID,-0.40754,VALID,18.4835,VALID,119,VALID,1.14571,
2006-04-28, 02:09:00,VALID,918.055,VALID,0,VALID,100,VALID,-0.901257,VALID,18.7432,VALID,123,VALID,1.05114,
2006-04-28, 02:10:00,VALID,918.061,VALID,0,VALID,100,VALID,-1,VALID,18.4164,VALID,128,VALID,0.983141,
2006-04-28, 02:11:00,VALID,918.039,VALID,0,VALID,100,VALID,-1,VALID,19.9482,VALID,129,VALID,1.20027,
2006-04-28, 02:12:00,VALID,918.031,VALID,0,VALID,100,VALID,-1,VALID,18.8629,VALID,127,VALID,1.19713,
2006-04-28, 02:13:00,VALID,918.017,VALID,0,VALID,100,VALID,-0.884276,VALID,19.4336,VALID,121,VALID,0.932664,
2006-04-28, 02:14:00,VALID,918.002,VALID,0,VALID,100,VALID,-0.254712,VALID,19.1523,VALID,125,VALID,1.32973,
2006-04-28, 02:15:00,VALID,917.988,VALID,0,VALID,100,VALID,-0.254712,VALID,19.1109,VALID,123,VALID,1.60629,
2006-04-28, 02:16:00,VALID,918.006,VALID,0,VALID,100,VALID,-0.373578,VALID,20.1266,VALID,125,VALID,1.14082,
2006-04-28, 02:17:00,VALID,918.001,VALID,0,VALID,100,VALID,-0.390559,VALID,18.5954,VALID,132,VALID,1.274,
2006-04-28, 02:18:00,VALID,917.988,VALID,0,VALID,100,VALID,-0.373578,VALID,19.228,VALID,132,VALID,1.18638,
2006-04-28, 02:19:00,VALID,917.965,VALID,0,VALID,100,VALID,-0.254712,VALID,19.2907,VALID,129,VALID,1.40207,
2006-04-28, 02:20:00,VALID,917.937,VALID,0,VALID,100,VALID,-0.271693,VALID,19.6112,VALID,133,VALID,1.22005,
2006-04-28, 02:21:00,VALID,917.927,VALID,0,VALID,100,VALID,-0.288674,VALID,18.7155,VALID,136,VALID,1.46615,
2006-04-28, 02:22:00,VALID,917.907,VALID,0,VALID,100,VALID,-0.305655,VALID,19.2886,VALID,140,VALID,1.36644,
2006-04-28, 02:23:00,VALID,917.898,VALID,0,VALID,100,VALID,-0.288674,VALID,19.712,VALID,143,VALID,1.19169,
2006-04-28, 02:24:00,VALID,917.894,VALID,0,VALID,100,VALID,-0.254712,VALID,19.7561,VALID,143,VALID,1.31286,
2006-04-28, 02:25:00,VALID,917.904,VALID,0,VALID,100,VALID,-0.288674,VALID,19.1619,VALID,137,VALID,1.05543,
2006-04-28, 02:26:00,VALID,917.902,VALID,0,VALID,100,VALID,-0.288674,VALID,19.6968,VALID,115,VALID,0.991477,
2006-04-28, 02:27:00,VALID,917.911,VALID,0,VALID,100,VALID,-0.305655,VALID,19.1436,VALID,123,VALID,1.09844,
2006-04-28, 02:28:00,VALID,917.919,VALID,0,VALID,100,VALID,-0.288674,VALID,19.4021,VALID,128,VALID,0.99638,
2006-04-28, 02:29:00,VALID,917.925,VALID,0,VALID,100,VALID,-0.288674,VALID,18.4595,VALID,124,VALID,0.994606,
2006-04-28, 02:30:00,VALID,917.916,VALID,0,VALID,100,VALID,-0.271693,VALID,19.1562,VALID,133,VALID,1.06098,
2006-04-28, 02:31:00,VALID,917.923,VALID,0,VALID,100,VALID,-0.305655,VALID,19.2588,VALID,130,VALID,1.03437,
2006-04-28, 02:32:00,VALID,917.915,VALID,0,VALID,100,VALID,-0.288674,VALID,19.2129,VALID,128,VALID,1.05414,
2006-04-28, 02:33:00,VALID,917.901,VALID,0,VALID,100,VALID,-0.288674,VALID,19.6815,VALID,125,VALID,0.570503,
2006-04-28, 02:34:00,VALID,917.884,VALID,0,VALID,100,VALID,-0.271693,VALID,19.2323,VALID,119,VALID,1.05412,
2006-04-28, 02:35:00,VALID,917.88,VALID,0,VALID,100,VALID,-0.305655,VALID,19.1648,VALID,112,VALID,1.03659,
2006-04-28, 02:36:00,VALID,917.859,VALID,0,VALID,100,VALID,-0.237732,VALID,19.4451,VALID,110,VALID,1.15739,
2006-04-28, 02:37:00,VALID,917.844,VALID,0,VALID,100,VALID,-0.254712,VALID,19.1096,VALID,113,VALID,1.22693,
2006-04-28, 02:38:00,VALID,917.824,VALID,0,VALID,100,VALID,-0.254712,VALID,19.276,VALID,124,VALID,1.21378,
2006-04-28, 02:39:00,VALID,917.817,VALID,0,VALID,100,VALID,-0.503142,VALID,19.748,VALID,131,VALID,0.935785,
2006-04-28, 02:40:00,VALID,917.801,VALID,0,VALID,100,VALID,-0.884276,VALID,19.6781,VALID,133,VALID,1.2074,
2006-04-28, 02:41:00,VALID,917.79,VALID,0,VALID,100,VALID,-0.356597,VALID,19.7797,VALID,128,VALID,1.27437,
2006-04-28, 02:42:00,VALID,917.788,VALID,0,VALID,100,VALID,-0.305655,VALID,19.7623,VALID,126,VALID,1.41134,
2006-04-28, 02:43:00,VALID,917.776,VALID,0,VALID,100,VALID,-0.305655,VALID,19.6808,VALID,126,VALID,1.42912,
2006-04-28, 02:44:00,VALID,917.772,VALID,0,VALID,100,VALID,-0.305655,VALID,19.7057,VALID,127,VALID,1.32677,
2006-04-28, 02:45:00,VALID,917.77,VALID,0,VALID,100,VALID,-0.271693,VALID,18.8974,VALID,127,VALID,1.02521,
2006-04-28, 02:46:00,VALID,917.766,VALID,0,VALID,100,VALID,-0.271693,VALID,19.0827,VALID,115,VALID,1.14759,
2006-04-28, 02:47:00,VALID,917.757,VALID,0,VALID,100,VALID,-0.237732,VALID,19.4074,VALID,121,VALID,1.11555,
2006-04-28, 02:48:00,VALID,917.736,VALID,0,VALID,100,VALID,-0.271693,VALID,19.2663,VALID,126,VALID,1.37481,
2006-04-28, 02:49:00,VALID,917.715,VALID,0,VALID,100,VALID,-0.254712,VALID,18.5823,VALID,122,VALID,1.32813,
2006-04-28, 02:50:00,VALID,917.713,VALID,0,VALID,100,VALID,-0.254712,VALID,18.7897,VALID,121,VALID,1.42274,
2006-04-28, 02:51:00,VALID,917.721,VALID,0,VALID,100,VALID,-0.271693,VALID,19.2386,VALID,122,VALID,1.17578,
2006-04-28, 02:52:00,VALID,917.728,VALID,0,VALID,100,VALID,-0.271693,VALID,18.9357,VALID,122,VALID,0.891513,
2006-04-28, 02:53:00,VALID,917.737,VALID,0,VALID,100,VALID,-0.254712,VALID,19.6674,VALID,124,VALID,0.943314,
2006-04-28, 02:54:00,VALID,917.749,VALID,0,VALID,100,VALID,-0.254712,VALID,19.9073,VALID,118,VALID,0.873698,
2006-04-28, 02:55:00,VALID,917.754,VALID,0,VALID,100,VALID,-0.288674,VALID,19.4625,VALID,114,VALID,0.72202,
2006-04-28, 02:56:00,VALID,917.733,VALID,0,VALID,100,VALID,-0.305655,VALID,19.5998,VALID,113,VALID,1.13091,
2006-04-28, 02:57:00,VALID,917.722,VALID,0,VALID,100,VALID,-0.271693,VALID,18.7684,VALID,120,VALID,1.19132,
2006-04-28, 02:58:00,VALID,917.722,VALID,0,VALID,100,VALID,-0.305655,VALID,18.8784,VALID,130,VALID,0.934152,
2006-04-28, 02:59:00,VALID,917.703,VALID,0,VALID,100,VALID,-0.305655,VALID,19.0568,VALID,126,VALID,0.960193,
2006-04-28, 03:00:00,VALID,917.675,VALID,0,VALID,100,VALID,-0.271693,VALID,19.5041,VALID,121,VALID,0.915551,
2006-04-28, 03:01:00,VALID,917.646,VALID,0,VALID,100,VALID,-0.288674,VALID,19.7198,VALID,118,VALID,0.935014,
2006-04-28, 03:02:00,VALID,917.624,VALID,0,VALID,100,VALID,-0.288674,VALID,19.5725,VALID,119,VALID,1.15117,
2006-04-28, 03:03:00,VALID,917.614,VALID,0,VALID,100,VALID,-0.288674,VALID,18.572,VALID,117,VALID,1.13095,
2006-04-28, 03:04:00,VALID,917.59,VALID,0,VALID,100,VALID,-0.271693,VALID,19.4939,VALID,112,VALID,1.0347,
2006-04-28, 03:05:00,VALID,917.57,VALID,0,VALID,100,VALID,-0.305655,VALID,19.0581,VALID,116,VALID,1.03392,
2006-04-28, 03:06:00,VALID,917.544,VALID,0,VALID,100,VALID,-0.271693,VALID,19.4928,VALID,116,VALID,1.01726,
2006-04-28, 03:07:00,VALID,917.525,VALID,0,VALID,100,VALID,-0.254712,VALID,20.5722,VALID,119,VALID,1.18368,
2006-04-28, 03:08:00,VALID,917.499,VALID,0,VALID,100,VALID,-0.288674,VALID,19.7245,VALID,119,VALID,1.16642,
2006-04-28, 03:09:00,VALID,917.506,VALID,0,VALID,100,VALID,-0.271693,VALID,19.3068,VALID,117,VALID,1.32177,
2006-04-28, 03:10:00,VALID,917.499,VALID,0,VALID,100,VALID,-0.237732,VALID,19.9419,VALID,117,VALID,1.28906,
2006-04-28, 03:11:00,VALID,917.49,VALID,0,VALID,100,VALID,-0.237732,VALID,19.2863,VALID,110,VALID,1.07485,
2006-04-28, 03:12:00,VALID,917.487,VALID,0,VALID,100,VALID,-0.271693,VALID,20.1497,VALID,111,VALID,1.17418,
2006-04-28, 03:13:00,VALID,917.495,VALID,0,VALID,100,VALID,-0.322636,VALID,19.5945,VALID,112,VALID,1.13872,
2006-04-28, 03:14:00,VALID,917.487,VALID,0,VALID,100,VALID,-0.322636,VALID,19.2781,VALID,109,VALID,0.971912,
2006-04-28, 03:15:00,VALID,917.478,VALID,0,VALID,100,VALID,-0.322636,VALID,19.7922,VALID,111,VALID,0.946987,
2006-04-28, 03:16:00,VALID,917.468,VALID,0,VALID,100,VALID,-0.20377,VALID,19.5167,VALID,113,VALID,0.971037,
2006-04-28, 03:17:00,VALID,917.456,VALID,0,VALID,100,VALID,-0.237732,VALID,19.5486,VALID,114,VALID,0.854102,
2006-04-28, 03:18:00,VALID,917.445,VALID,0,VALID,100,VALID,-0.254712,VALID,20.1763,VALID,105,VALID,0.965298,
2006-04-28, 03:19:00,VALID,917.453,VALID,0,VALID,100,VALID,-0.254712,VALID,19.5629,VALID,90,VALID,0.913213,
2006-04-28, 03:20:00,VALID,917.445,VALID,0,VALID,100,VALID,-0.373578,VALID,19.9639,VALID,99,VALID,0.926172,
2006-04-28, 03:21:00,VALID,917.43,VALID,0,VALID,100,VALID,-0.271693,VALID,19.2916,VALID,103,VALID,0.947621,
2006-04-28, 03:22:00,VALID,917.425,VALID,0,VALID,100,VALID,-0.288674,VALID,19.9079,VALID,107,VALID,0.978161,
2006-04-28, 03:23:00,VALID,917.404,VALID,0,VALID,100,VALID,-0.237732,VALID,19.0424,VALID,128,VALID,0.860137,
2006-04-28, 03:24:00,VALID,917.383,VALID,0,VALID,100,VALID,-0.254712,VALID,19.5632,VALID,136,VALID,0.695499,
2006-04-28, 03:25:00,VALID,917.377,VALID,0,VALID,100,VALID,-0.254712,VALID,19.1048,VALID,127,VALID,0.401811,
2006-04-28, 03:26:00,VALID,917.358,VALID,0,VALID,100,VALID,-0.288674,VALID,19.7335,VALID,127,VALID,0.277431,
2006-04-28, 03:27:00,VALID,917.355,VALID,0,VALID,100,VALID,-0.305655,VALID,19.6439,VALID,127,VALID,0.34157,
2006-04-28, 03:28:00,VALID,917.338,VALID,0,VALID,100,VALID,-0.288674,VALID,19.4914,VALID,127,VALID,0.149805,
2006-04-28, 03:29:00,VALID,917.33,VALID,0,VALID,100,VALID,-0.288674,VALID,18.8597,VALID,127,VALID,0.197656,
2006-04-28, 03:30:00,VALID,917.307,VALID,0,VALID,100,VALID,-0.288674,VALID,18.9714,VALID,127,VALID,0.534979,
2006-04-28, 03:31:00,VALID,917.305,VALID,0,VALID,100,VALID,-0.288674,VALID,19.3487,VALID,127,VALID,0.572409,
2006-04-28, 03:32:00,VALID,917.294,VALID,0,VALID,100,VALID,-0.288674,VALID,19.2606,VALID,127,VALID,0.62534,
2006-04-28, 03:33:00,VALID,917.286,VALID,0,VALID,100,VALID,-0.271693,VALID,18.7765,VALID,127,VALID,0.649346,
2006-04-28, 03:34:00,VALID,917.277,VALID,0,VALID,100,VALID,-0.305655,VALID,18.8474,VALID,127,VALID,0.718568,
2006-04-28, 03:35:00,VALID,917.261,VALID,0,VALID,100,VALID,-0.288674,VALID,19.6955,VALID,130,VALID,0.685369,
2006-04-28, 03:36:00,VALID,917.258,VALID,0,VALID,100,VALID,-0.271693,VALID,19.5252,VALID,125,VALID,0.900724,
2006-04-28, 03:37:00,VALID,917.245,VALID,0,VALID,100,VALID,-0.288674,VALID,18.7799,VALID,127,VALID,0.755632,
2006-04-28, 03:38:00,VALID,917.246,VALID,0,VALID,100,VALID,-0.288674,VALID,18.7439,VALID,130,VALID,0.689732,
2006-04-28, 03:39:00,VALID,917.259,VALID,0,VALID,100,VALID,-0.288674,VALID,19.3693,VALID,129,VALID,0.647166,
2006-04-28, 03:40:00,VALID,917.255,VALID,0,VALID,100,VALID,-0.288674,VALID,19.3527,VALID,124,VALID,0.942587,